• In Uzbekistan
  • List of Countries
  • For 7 days
  • Water Temperature
  • Weather Map
  • Weather Widgets
  • user-avatar
    Login

    Hourly Weather Sidi Bu-l-Abbas

    Today, 24 February, Monday

    Time Temperature Precipitation Wind Pressure Humidity
    00:00 +13°C° 0 mm 1 mps 729 mmHg 57%
    01:00 +13°C° 0 mm 1 mps 729 mmHg 53%
    02:00 +13°C° 0 mm 1 mps 728 mmHg 49%
    03:00 +13°C° 0 mm 1 mps 728 mmHg 45%
    04:00 +12°C° 0 mm 1 mps 727 mmHg 43%
    05:00 +12°C° 0 mm 1 mps 727 mmHg 41%
    06:00 +11°C° 0 mm 1 mps 728 mmHg 39%
    07:00 +14°C° 0 mm 1 mps 728 mmHg 35%
    08:00 +16°C° 0 mm 1 mps 728 mmHg 31%
    09:00 +20°C° 0 mm 1 mps 729 mmHg 27%
    10:00 +21°C° 0 mm 1 mps 729 mmHg 25%
    11:00 +23°C° 0 mm 2 mps 728 mmHg 23%
    12:00 +24°C° 0 mm 2 mps 728 mmHg 20%
    13:00 +24°C° 0 mm 2 mps 728 mmHg 23%
    14:00 +24°C° 0 mm 3 mps 727 mmHg 26%
    15:00 +24°C° 0 mm 3 mps 726 mmHg 28%
    16:00 +20°C° 0 mm 2 mps 726 mmHg 40%
    17:00 +18°C° 0 mm 2 mps 725 mmHg 52%
    18:00 +15°C° 0 mm 1 mps 725 mmHg 64%
    19:00 +14°C° 0 mm 1 mps 725 mmHg 64%
    20:00 +14°C° 0 mm 1 mps 725 mmHg 64%
    21:00 +13°C° 0 mm 1 mps 725 mmHg 64%
    22:00 +13°C° 0 mm 1 mps 725 mmHg 63%
    23:00 +13°C° 0 mm 1 mps 724 mmHg 62%

    Tomorrow, 25 February, Tuesday

    Time Temperature Precipitation Wind Pressure Humidity
    00:00 +13°C° 0 mm 1 mps 724 mmHg 61%
    01:00 +12°C° 0 mm 2 mps 724 mmHg 60%
    02:00 +12°C° 0 mm 2 mps 723 mmHg 58%
    03:00 +12°C° 0 mm 2 mps 723 mmHg 57%
    04:00 +12°C° 0 mm 2 mps 723 mmHg 57%
    05:00 +12°C° 0 mm 2 mps 723 mmHg 57%
    06:00 +12°C° 0 mm 2 mps 723 mmHg 58%
    07:00 +13°C° 0 mm 3 mps 723 mmHg 52%
    08:00 +15°C° 0 mm 4 mps 723 mmHg 47%
    09:00 +16°C° 0 mm 5 mps 724 mmHg 42%
    10:00 +17°C° 0 mm 6 mps 724 mmHg 41%
    11:00 +18°C° 0 mm 8 mps 724 mmHg 41%
    12:00 +19°C° 0 mm 9 mps 724 mmHg 41%
    13:00 +19°C° 0 mm 9 mps 724 mmHg 40%
    14:00 +18°C° 0 mm 10 mps 723 mmHg 39%
    15:00 +18°C° 0 mm 11 mps 723 mmHg 38%
    16:00 +16°C° 0 mm 9 mps 722 mmHg 44%
    17:00 +15°C° 0 mm 8 mps 722 mmHg 50%
    18:00 +13°C° 0 mm 6 mps 722 mmHg 56%
    19:00 +13°C° 0 mm 6 mps 722 mmHg 60%
    20:00 +11°C° 0 mm 6 mps 723 mmHg 63%
    21:00 +12°C° 0 mm 5 mps 723 mmHg 67%
    22:00 +10°C° 0 mm 5 mps 723 mmHg 66%
    23:00 +10°C° 0 mm 5 mps 723 mmHg 66%

    Day after tomorrow, 26 February, Wednesday

    Time Temperature Precipitation Wind Pressure Humidity
    00:00 +10°C° 0 mm 5 mps 723 mmHg 66%
    01:00 +10°C° 0 mm 5 mps 722 mmHg 64%
    02:00 +9°C° 0 mm 5 mps 722 mmHg 62%
    03:00 +9°C° 0 mm 5 mps 722 mmHg 61%
    04:00 +9°C° 0 mm 5 mps 722 mmHg 65%
    05:00 +8°C° 0 mm 4 mps 722 mmHg 70%
    06:00 +9°C° 0 mm 3 mps 722 mmHg 74%
    07:00 +10°C° 0 mm 5 mps 722 mmHg 69%
    08:00 +11°C° 0 mm 6 mps 723 mmHg 65%
    09:00 +14°C° 0 mm 7 mps 723 mmHg 60%
    10:00 +15°C° 0 mm 8 mps 723 mmHg 60%
    11:00 +15°C° 0 mm 9 mps 723 mmHg 59%
    12:00 +16°C° 0 mm 10 mps 723 mmHg 59%
    13:00 +16°C° 0 mm 10 mps 723 mmHg 60%
    14:00 +16°C° 0 mm 10 mps 722 mmHg 62%
    15:00 +16°C° 0 mm 10 mps 722 mmHg 63%
    16:00 +13°C° 0 mm 8 mps 722 mmHg 68%
    17:00 +13°C° 0 mm 6 mps 722 mmHg 72%
    18:00 +12°C° 0 mm 4 mps 722 mmHg 77%
    19:00 +11°C° 0 mm 4 mps 722 mmHg 80%
    20:00 +10°C° 0 mm 3 mps 722 mmHg 82%
    21:00 +10°C° 0 mm 3 mps 723 mmHg 85%
    22:00 +9°C° 0 mm 3 mps 723 mmHg 83%
    23:00 +9°C° 0 mm 2 mps 723 mmHg 81%

    27 February, Thursday

    Time Temperature Precipitation Wind Pressure Humidity
    00:00 +9°C° 0 mm 2 mps 723 mmHg 79%
    01:00 +9°C° 0 mm 2 mps 723 mmHg 77%
    02:00 +8°C° 0 mm 2 mps 722 mmHg 76%
    03:00 +8°C° 0 mm 2 mps 722 mmHg 74%
    04:00 +8°C° 0 mm 2 mps 722 mmHg 73%
    05:00 +8°C° 0 mm 2 mps 722 mmHg 71%
    06:00 +8°C° 0 mm 1 mps 723 mmHg 69%
    07:00 +11°C° 0 mm 1 mps 723 mmHg 63%
    08:00 +13°C° 0 mm 2 mps 724 mmHg 56%
    09:00 +15°C° 0 mm 2 mps 724 mmHg 50%
    10:00 +16°C° 0 mm 2 mps 724 mmHg 45%
    11:00 +18°C° 0 mm 2 mps 725 mmHg 41%
    12:00 +19°C° 0 mm 3 mps 725 mmHg 36%
    13:00 +20°C° 0 mm 3 mps 724 mmHg 36%
    14:00 +20°C° 0 mm 3 mps 724 mmHg 36%
    15:00 +20°C° 0 mm 4 mps 723 mmHg 35%
    16:00 +18°C° 0 mm 3 mps 723 mmHg 44%
    17:00 +16°C° 0 mm 2 mps 723 mmHg 52%
    18:00 +14°C° 0 mm 1 mps 723 mmHg 61%
    19:00 +13°C° 0 mm 1 mps 723 mmHg 64%
    20:00 +12°C° 0 mm 1 mps 723 mmHg 67%
    21:00 +11°C° 0 mm 0 mps 724 mmHg 70%
    22:00 +10°C° 0 mm 0 mps 723 mmHg 70%
    23:00 +10°C° 0 mm 0 mps 723 mmHg 70%

    28 February, Friday

    Time Temperature Precipitation Wind Pressure Humidity
    00:00 +10°C° 0 mm 0 mps 723 mmHg 71%
    01:00 +9°C° 0 mm 0 mps 723 mmHg 72%
    02:00 +9°C° 0 mm 0 mps 722 mmHg 72%
    03:00 +9°C° 0 mm 0 mps 722 mmHg 73%
    04:00 +10°C° 0 mm 1 mps 722 mmHg 72%
    05:00 +10°C° 0 mm 1 mps 722 mmHg 72%
    06:00 +10°C° 0 mm 1 mps 722 mmHg 71%
    07:00 +13°C° 0 mm 2 mps 723 mmHg 61%
    08:00 +15°C° 0 mm 2 mps 723 mmHg 52%
    09:00 +18°C° 0 mm 2 mps 724 mmHg 42%
    10:00 +20°C° 0 mm 2 mps 724 mmHg 37%
    11:00 +23°C° 0 mm 2 mps 724 mmHg 32%
    12:00 +25°C° 0 mm 2 mps 723 mmHg 26%
    13:00 +25°C° 0 mm 3 mps 723 mmHg 27%
    14:00 +25°C° 0 mm 3 mps 722 mmHg 27%
    15:00 +26°C° 0 mm 4 mps 722 mmHg 28%
    16:00 +22°C° 0 mm 3 mps 721 mmHg 38%
    17:00 +19°C° 0 mm 2 mps 721 mmHg 48%
    18:00 +16°C° 0 mm 1 mps 720 mmHg 58%
    19:00 +15°C° 0 mm 1 mps 721 mmHg 60%
    20:00 +15°C° 0 mm 1 mps 721 mmHg 63%
    21:00 +13°C° 0 mm 0 mps 721 mmHg 65%
    22:00 +14°C° 0 mm 1 mps 721 mmHg 64%
    23:00 +14°C° 0 mm 1 mps 721 mmHg 63%

    29 February, Saturday

    Time Temperature Precipitation Wind Pressure Humidity
    00:00 +14°C° 0 mm 1 mps 721 mmHg 62%
    01:00 +14°C° 0 mm 2 mps 721 mmHg 63%
    02:00 +14°C° 0 mm 2 mps 721 mmHg 63%
    03:00 +13°C° 0 mm 2 mps 720 mmHg 63%
    04:00 +13°C° 0 mm 2 mps 720 mmHg 63%
    05:00 +13°C° 0 mm 2 mps 721 mmHg 62%
    06:00 +13°C° 0 mm 2 mps 721 mmHg 61%
    07:00 +15°C° 0 mm 2 mps 721 mmHg 57%
    08:00 +16°C° 0 mm 2 mps 722 mmHg 52%
    09:00 +18°C° 0 mm 3 mps 722 mmHg 48%
    10:00 +19°C° 0 mm 3 mps 722 mmHg 45%
    11:00 +20°C° 0 mm 4 mps 723 mmHg 42%
    12:00 +21°C° 0 mm 5 mps 723 mmHg 39%
    13:00 +21°C° 0 mm 5 mps 722 mmHg 41%
    14:00 +21°C° 0 mm 5 mps 722 mmHg 43%
    15:00 +20°C° 0 mm 6 mps 721 mmHg 44%
    16:00 +18°C° 0 mm 4 mps 721 mmHg 50%
    17:00 +16°C° 0 mm 3 mps 721 mmHg 55%
    18:00 +15°C° 0 mm 2 mps 721 mmHg 60%
    19:00 +14°C° 0 mm 2 mps 721 mmHg 60%
    20:00 +13°C° 0 mm 2 mps 721 mmHg 60%
    21:00 +13°C° 0 mm 2 mps 721 mmHg 60%
    22:00 +13°C° 0 mm 2 mps 721 mmHg 59%
    23:00 +12°C° 0 mm 3 mps 721 mmHg 58%
    Show more